Bennington, VT

5:11 AM EST on January 16, 2018 (GMT -0500)
Morse State

Weather History for KDDH - August, 2013

Change the Weather History Date:

Sunday, August 11, 2013

  Actual Average Record
Temperature  
Mean Temperature 61 °F 67 °F  
Max Temperature 75 °F 78 °F 91 °F (2016)
Min Temperature 46 °F 56 °F 46 °F (2006)
Degree Days  
Heating Degree Days 4 1  
Month to date heating degree days 19 11  
Since 1 June heating degree days 129 132  
Since 1 July heating degree days 29 35  
Cooling Degree Days 0 4  
Month to date cooling degree days 30 44  
Year to date cooling degree days 408 239  
Since 1 June cooling degree days 376 225  
Growing Degree Days 10 (Base 50)    
Moisture  
Dew Point 51 °F    
Average Humidity 72    
Maximum Humidity 100    
Minimum Humidity 44    
Precipitation  
Precipitation 0.00 in 0.13 in 1.15 in (2008)
Month to date precipitation 0.72 1.58  
Year to date precipitation 28.08 25.12  
Sea Level Pressure  
Sea Level Pressure 30.08 in    
Wind  
Wind Speed 2 mph (WSW)    
Max Wind Speed 10 mph    
Max Gust Speed 25 mph    
Visibility 10 miles    
Events      
T = Trace of Precipitation, MM = Missing Value Source: NWS Daily Summary

Daily Weather History Graph

Daily Weather History Graph

Search for Another Location

Airport or City:

Trip Planner

Search our weather history database for the weather conditions in past years. The results will help you decide how hot, cold, wet, or windy it might be!

Date:

Astronomy

Aug. 11, 2013 Rise Set
Actual Time 5:55 AM EDT 8:00 PM EDT
Civil Twilight 5:23 AM EDT 8:31 PM EDT
Nautical Twilight 4:45 AM EDT 9:09 PM EDT
Astronomical Twilight 4:03 AM EDT 9:50 PM EDT
Moon 10:49 AM EDT (8/11) 10:05 PM EDT (8/11)
Length of Visible Light 15h 07m
Length of Day
14h 05m
Waxing Crescent, 22% of the Moon is Illuminated
Aug 11
Waxing Crescent
Aug 14
First Quarter
Aug 20
Full
Aug 28
Last Quarter
Sep 5
New

Hourly Weather History & Observations

Time (EDT) Temp. Dew Point Humidity Pressure Visibility Wind Dir Wind Speed Gust Speed Precip Events Conditions
12:54 AM 51.1 °F 48.9 °F 92% 30.07 in 10.0 mi Calm Calm - N/A   Clear
1:54 AM 50.0 °F 48.0 °F 93% 30.08 in 10.0 mi Calm Calm - N/A   Clear
2:54 AM 48.9 °F 46.9 °F 93% 30.09 in 10.0 mi Calm Calm - N/A   Clear
3:54 AM 46.9 °F 46.0 °F 97% 30.09 in 10.0 mi Calm Calm - N/A   Clear
4:54 AM 46.9 °F 45.0 °F 93% 30.09 in 10.0 mi Calm Calm - N/A   Clear
5:54 AM 46.9 °F 45.0 °F 93% 30.11 in 4.0 mi Calm Calm - N/A   Scattered Clouds
6:54 AM 50.0 °F 48.0 °F 93% 30.11 in 10.0 mi Calm Calm - N/A   Clear
7:54 AM 55.9 °F 52.0 °F 87% 30.12 in 10.0 mi Calm Calm - N/A   Clear
8:54 AM 62.1 °F 52.0 °F 70% 30.12 in 10.0 mi Calm Calm - N/A   Clear
9:54 AM 66.0 °F 54.0 °F 65% 30.13 in 10.0 mi Calm Calm - N/A   Clear
10:54 AM 68.0 °F 53.1 °F 59% 30.12 in 10.0 mi Calm Calm - N/A   Clear
11:54 AM 69.1 °F 52.0 °F 54% 30.11 in 10.0 mi West 6.9 mph - N/A   Partly Cloudy
12:54 PM 70.0 °F 50.0 °F 49% 30.09 in 10.0 mi WNW 3.5 mph - N/A   Clear
1:54 PM 73.0 °F 52.0 °F 48% 30.08 in 10.0 mi Calm Calm - N/A   Scattered Clouds
2:54 PM 73.0 °F 53.1 °F 49% 30.07 in 10.0 mi WSW 8.1 mph - N/A   Mostly Cloudy
3:54 PM 73.9 °F 52.0 °F 46% 30.05 in 10.0 mi WNW 4.6 mph - N/A   Partly Cloudy
4:54 PM 73.9 °F 52.0 °F 46% 30.04 in 10.0 mi SW 6.9 mph - N/A   Scattered Clouds
5:54 PM 73.9 °F 50.0 °F 43% 30.04 in 10.0 mi Variable 6.9 mph - N/A   Clear
6:54 PM 72.0 °F 52.0 °F 49% 30.03 in 10.0 mi West 3.5 mph - N/A   Clear
7:54 PM 62.1 °F 55.9 °F 80% 30.03 in 10.0 mi SSW 3.5 mph - N/A   Clear
8:54 PM 57.9 °F 55.0 °F 90% 30.04 in 10.0 mi SSW 4.6 mph - N/A   Clear
9:54 PM 55.9 °F 53.1 °F 90% 30.05 in 10.0 mi Calm Calm - N/A   Clear
10:54 PM 55.9 °F 53.1 °F 90% 30.05 in 10.0 mi Calm Calm - N/A   Clear
11:54 PM 54.0 °F 51.1 °F 90% 30.06 in 10.0 mi Calm Calm - N/A   Clear